Redmond, OR

12:02 PM PST on November 13, 2019 (GMT -0800)
Roberts Field Airport

Weather History for KRDM - September, 2019

Change the Weather History Date:

Monday, September 2, 2019

  Actual Average Record
Temperature  
Mean Temperature 69 °F 61 °F  
Max Temperature 88 °F 81 °F 105 °F (1998)
Min Temperature 50 °F 42 °F 28 °F (1973)
Degree Days  
Heating Degree Days 0 5  
Month to date heating degree days 0 10  
Since 1 July heating degree days 47 159  
Cooling Degree Days 4 1  
Month to date cooling degree days 9 2  
Year to date cooling degree days 265 208  
Growing Degree Days 19 (Base 50)    
Moisture  
Dew Point 48 °F    
Average Humidity 54    
Maximum Humidity 83    
Minimum Humidity 25    
Precipitation  
Precipitation 0.00 in 0.02 in 0.03 in (2004)
Month to date precipitation 0.00 0.03  
Year to date precipitation 7.46 5.76  
Sea Level Pressure  
Sea Level Pressure 29.99 in    
Wind  
Wind Speed 7 mph (NW)    
Max Wind Speed 16 mph    
Max Gust Speed 20 mph    
Visibility 10 miles    
Events      
T = Trace of Precipitation, MM = Missing Value Source: NWS Daily Summary

Daily Weather History Graph

Daily Weather History Graph

Search for Another Location

Airport or City:

Astronomy

Sep. 02, 2019 Rise Set
Actual Time 6:28 AM PDT 7:39 PM PDT
Civil Twilight 5:58 AM PDT 8:08 PM PDT
Nautical Twilight 5:22 AM PDT 8:44 PM PDT
Astronomical Twilight 4:45 AM PDT 9:22 PM PDT
Moon 10:24 AM PDT (9/2) 9:54 PM PDT (9/2)
Length of Visible Light 14h 10m
Length of Day
13h 10m
Waxing Crescent, 16% of the Moon is Illuminated
Sep 2
Waxing Crescent
Sep 5
First Quarter
Sep 13
Full
Sep 21
Last Quarter
Sep 28
New

Hourly Weather History & Observations

Time (PDT) Temp. Dew Point Humidity Pressure Visibility Wind Dir Wind Speed Gust Speed Precip Events Conditions
12:56 AM 63.0 °F 48.0 °F 58% 29.98 in 10.0 mi West 4.6 mph - N/A   Clear
1:56 AM 61.0 °F 48.0 °F 62% 29.99 in 10.0 mi NW 5.8 mph - N/A   Clear
2:56 AM 60.1 °F 48.0 °F 64% 29.99 in 10.0 mi West 5.8 mph - N/A   Clear
3:56 AM 52.0 °F 45.0 °F 77% 30.00 in 10.0 mi South 3.5 mph - N/A   Clear
4:56 AM 52.0 °F 45.0 °F 77% 30.01 in 10.0 mi South 4.6 mph - N/A   Clear
5:56 AM 51.1 °F 45.0 °F 80% 30.02 in 10.0 mi Calm Calm - N/A   Clear
6:56 AM 51.1 °F 46.0 °F 83% 30.04 in 10.0 mi Calm Calm - N/A   Clear
7:56 AM 57.0 °F 46.9 °F 69% 30.05 in 10.0 mi ESE 3.5 mph - N/A   Clear
8:56 AM 63.0 °F 48.9 °F 60% 30.04 in 10.0 mi Calm Calm - N/A   Clear
9:56 AM 68.0 °F 48.9 °F 50% 30.03 in 10.0 mi Variable 3.5 mph - N/A   Clear
10:56 AM 73.9 °F 50.0 °F 43% 30.02 in 10.0 mi NW 6.9 mph - N/A   Clear
11:56 AM 77.0 °F 50.0 °F 39% 30.01 in 10.0 mi North 8.1 mph - N/A   Clear
12:56 PM 80.1 °F 50.0 °F 35% 29.98 in 10.0 mi North 4.6 mph - N/A   Clear
1:56 PM 82.9 °F 48.9 °F 31% 29.97 in 10.0 mi Variable 5.8 mph - N/A   Clear
2:56 PM 84.0 °F 48.9 °F 29% 29.95 in 10.0 mi NNW 8.1 mph - N/A   Clear
3:56 PM 86.0 °F 48.0 °F 27% 29.94 in 10.0 mi NNW 9.2 mph - N/A   Clear
4:56 PM 87.1 °F 48.0 °F 26% 29.93 in 10.0 mi NW 9.2 mph - N/A   Clear
5:56 PM 86.0 °F 46.0 °F 25% 29.92 in 10.0 mi North 10.4 mph - N/A   Clear
6:56 PM 84.0 °F 46.0 °F 26% 29.93 in 10.0 mi North 10.4 mph - N/A   Clear
7:56 PM 79.0 °F 46.0 °F 31% 29.95 in 10.0 mi WNW 13.8 mph - N/A   Clear
8:56 PM 75.0 °F 50.0 °F 41% 29.97 in 10.0 mi NW 11.5 mph - N/A   Clear
9:56 PM 72.0 °F 48.0 °F 43% 29.98 in 10.0 mi NNW 9.2 mph - N/A   Clear
10:56 PM 70.0 °F 48.9 °F 47% 29.98 in 10.0 mi NNW 10.4 mph - N/A   Clear
11:56 PM 68.0 °F 48.9 °F 50% 29.98 in 10.0 mi NW 6.9 mph - N/A   Clear